[[{"header":{"parameterUnit":"m.s-1","parameterCategory":1,"la1":30.2991,"la2":30.254,"lo1":-89.0895,"lo2":-89.0444,"dy":0.0017,"dx":0.0017,"nx":28,"ny":28,"refTime":"2024-02-09T09:00:00:Z","depth":0,"parameterNumber":2,"parameterNumberName":"U-component_of_WINDS"},"data":[0,0,0,0,0,0,0,0,0,0,0,0,0,0,0,0,0,0,0,0,0,0,0,0,0,0,0,0,0,0,0,0,0,0,0,0,0,0,0,0,0,0,0,0,0,0,0,0,0,0,0,0,0,0,0,0,0,0,-2.8431,-2.8432,0,-2.8526,-2.8527,-2.8528,-2.8527,-2.8526,-2.8525,-2.8524,-2.8623,-2.8627,-2.8631,0,0,0,0,0,0,0,0,0,0,0,0,0,-2.8251,-2.8254,-2.8431,-2.8432,-2.8433,-2.8526,-2.8527,-2.8529,-2.8528,-2.8526,-2.8524,-2.8523,-2.8622,-2.8626,-2.8631,0,0,0,0,0,0,0,0,0,0,0,0,0,-2.8336,-2.8256,-2.8431,-2.8444,-2.8446,-2.8526,-2.8527,-2.8529,-2.8528,-2.8526,-2.8524,-2.8522,-2.862,-2.8626,-2.8632,-2.8705,0,0,-2.8649,-2.8652,0,0,0,0,0,0,0,0,-2.8331,-2.8343,-2.8441,-2.8443,-2.8446,-2.8513,-2.85,-2.8588,-2.8528,-2.8497,-2.8524,-2.8521,-2.8588,-2.8596,-2.8618,-2.871,-2.8714,-2.865,-2.8653,-2.8656,-2.8657,0,0,0,0,0,0,0,-2.8325,-2.8339,-2.8469,-2.8442,-2.8445,-2.8446,-2.8456,-2.8517,-2.8552,-2.8499,-2.85,-2.8511,-2.8589,-2.8613,-2.8621,-2.8715,-2.8649,-2.8655,-2.8658,-2.866,-2.8873,-2.8875,0,0,0,0,0,0,-2.8316,-2.8334,-2.8466,-2.8471,-2.8383,-2.8451,-2.8462,-2.8493,-2.8551,-2.8558,-2.8512,-2.851,-2.8604,-2.8614,-2.8624,-2.8714,-2.8656,-2.8661,-2.8664,-2.8871,-2.8874,-2.8876,0,0,0,0,0,0,-2.8313,-2.8328,-2.8462,-2.8403,-2.842,-2.8456,-2.8491,-2.8496,-2.852,-2.8561,-2.8568,-2.853,-2.8603,-2.8616,-2.8685,-2.8718,-2.8664,-2.8669,-2.8869,-2.8872,-2.8875,-2.8895,0,0,0,0,0,0,-2.8307,-2.8327,-2.8354,-2.8403,-2.8423,-2.852,-2.8493,-2.8499,-2.853,-2.8528,-2.8579,-2.8586,-2.8602,-2.8677,-2.8691,-2.8725,-2.8673,-2.8866,-2.887,-2.8874,-2.8891,-2.8898,-2.8905,0,0,0,0,0,-2.8301,-2.8356,-2.8356,-2.8371,-2.8458,-2.8522,-2.8533,-2.855,-2.8532,-2.8561,-2.8587,-2.8584,-2.8712,-2.8684,-2.87,-2.8736,-2.8864,-2.8869,-2.8874,-2.8889,-2.8897,-2.8904,0,0,0,0,0,0,-2.831,-2.8363,-2.8363,-2.8435,-2.8474,-2.8521,-2.8557,-2.8559,-2.8604,-2.8601,-2.8621,-2.8633,-2.8701,-2.8726,-2.8693,-2.8811,-2.8786,-2.8794,-2.8792,-2.88,-2.8807,-2.8799,-2.8678,0,0,0,0,0,-2.8321,-2.8367,-2.8411,-2.8471,-2.8491,-2.8521,-2.8549,-2.856,-2.8601,-2.8617,-2.8649,-2.869,-2.874,-2.8772,-2.8819,-2.8896,-2.8907,-2.8929,-2.8935,-2.8941,-2.8947,-2.899,-2.9,-2.8893,-2.8893,-2.8892,0,0,-2.8342,-2.8377,-2.8405,-2.8474,-2.8505,-2.8554,-2.8535,-2.8587,-2.8624,-2.8626,-2.8692,-2.8717,-2.8765,-2.8838,-2.8871,-2.886,-2.898,-2.8947,-2.8951,-2.8954,-2.8996,-2.9006,-2.9015,-2.8896,-2.8895,-2.8895,0,0,-2.8407,-2.8438,-2.8491,-2.8523,-2.8571,-2.8591,-2.8604,-2.8652,-2.8669,-2.8736,-2.8739,-2.8784,-2.8868,-2.8902,-2.893,-2.901,-2.9009,-2.9025,-2.9059,-2.91,-2.9109,-2.9116,-2.9145,-2.9155,-2.9032,-2.9032,-2.9032,0,-2.8428,-2.8501,-2.8519,-2.8571,-2.8602,-2.8606,-2.8661,-2.8692,-2.8753,-2.8774,-2.8761,-2.8868,-2.89,-2.8981,-2.9001,-2.9024,-2.904,-2.9018,-2.9106,-2.9114,-2.9121,-2.9148,-2.9159,-2.9034,-2.9034,-2.9033,-2.9033,0,-2.8525,-2.8576,-2.8613,-2.8672,-2.8707,-2.876,-2.8787,-2.8821,-2.8829,-2.8851,-2.892,-2.8959,-2.9015,-2.9036,-2.9044,-2.9119,-2.911,-2.9102,-2.9077,-2.9133,-2.9158,-2.9169,-2.9036,-2.9035,-2.9035,-2.9035,0,0,-2.8596,-2.8664,-2.8678,-2.8705,-2.8759,-2.8799,-2.8854,-2.8908,-2.8936,-2.898,-2.9026,-2.9099,-2.9091,-2.9123,-2.9136,-2.9173,-2.9234,-2.9159,-2.9161,-2.9171,-2.9319,-2.9324,-2.9336,-2.9234,-2.9236,-2.9238,-2.9315,0,-2.8665,-2.8761,-2.8779,-2.8863,-2.891,-2.8917,-2.8964,-2.9003,-2.9026,-2.9071,-2.9096,-2.9147,-2.9134,-2.9153,-2.919,-2.9218,-2.9263,-2.9213,-2.9278,-2.928,-2.9264,-2.9349,-2.9355,-2.9425,-2.9325,-2.9327,-2.9328,0,-2.8759,-2.8803,-2.8891,-2.894,-2.8961,-2.9003,-2.9055,-2.9098,-2.9143,-2.9157,-2.9194,-2.9203,-2.9261,-2.9235,-2.9316,-2.9281,-2.931,-2.9328,-2.9331,-2.9336,-2.9306,-2.9356,-2.9448,-2.9458,-2.9344,-2.9343,-2.9342,0,-2.88,-2.8883,-2.8947,-2.897,-2.9028,-2.9058,-2.9084,-2.9127,-2.9159,-2.9205,-2.9226,-2.9279,-2.9308,-2.9349,-2.9373,-2.9352,-2.9452,-2.9428,-2.9466,-2.9465,-2.9485,-2.9483,-2.9581,-2.9505,-2.9505,-2.9505,-2.9505,0,-2.8875,-2.8929,-2.8966,-2.9005,-2.9066,-2.9088,-2.9148,-2.9174,-2.9212,-2.9257,-2.9267,-2.9309,-2.9338,-2.9385,-2.9404,-2.9468,-2.9481,-2.9495,-2.9499,-2.9493,-2.9491,-2.951,-2.9506,-2.9508,-2.9507,-2.9507,-2.9506,0,-2.8931,-2.8959,-2.9028,-2.9078,-2.9092,-2.9135,-2.9178,-2.9217,-2.924,-2.9297,-2.9312,-2.9349,-2.9405,-2.9433,-2.9503,-2.9516,-2.9588,-2.959,-2.9572,-2.9573,-2.9609,-2.9605,-2.9722,-2.9738,-2.9653,-2.9654,-2.9654,0,-2.8977,-2.9018,-2.9073,-2.9103,-2.9129,-2.9179,-2.9211,-2.9236,-2.927,-2.9325,-2.9357,-2.9414,-2.9459,-2.9548,-2.9582,-2.9636,-2.9638,-2.9676,-2.9646,-2.964,-2.9638,-2.9635,-2.9639,-2.968,-2.9681,-2.9682,-2.9683,0,-2.9054,-2.9066,-2.9112,-2.9164,-2.9202,-2.9245,-2.9286,-2.9311,-2.9342,-2.938,-2.9437,-2.9473,-2.9544,-2.96,-2.9656,-2.9684,-2.9689,-2.9692,-2.9703,-2.9697,-2.9684,-2.9691,-2.9585,-2.9689,-2.9688,-2.9688,-2.9687,-2.9687,-2.9105,-2.9142,-2.9187,-2.9239,-2.9273,-2.9312,-2.935,-2.9379,-2.9427,-2.9486,-2.9498,-2.9558,-2.9604,-2.968,-2.9711,-2.9759,-2.9751,-2.9767,-2.9771,-2.9775,-2.9776,-2.9678,-2.9769,-2.9769,-2.9769,-2.9769,-2.9769,0,-2.9182,-2.9212,-2.9259,-2.9317,-2.9358,-2.9359,-2.9406,-2.944,-2.9493,-2.9535,-2.958,-2.9646,-2.9701,-2.974,-2.9796,-2.9827,-2.983,-2.9841,-2.9838,-2.9844,-2.978,-2.9764,-2.9837,-2.9837,-2.9837,-2.9837,-2.9837,-2.9837,-2.9227,-2.929,-2.9307,-2.9388,-2.9417,-2.9475,-2.9502,-2.9538,-2.9572,-2.9645,-2.969,-2.9715,-2.9757,-2.9816,-2.9867,-2.9877,-2.9897,-2.9906,-2.9917,-2.9856,-2.9849,-2.9842,-2.9827,-2.9911,-2.9911,-2.9976,-2.9977,-2.9977]},{"header":{"parameterUnit":"m.s-1","parameterCategory":1,"la1":30.2991,"la2":30.254,"lo1":-89.0895,"lo2":-89.0444,"dy":0.0017,"dx":0.0017,"nx":28,"ny":28,"refTime":"2024-02-09T09:00:00:Z","depth":0,"parameterNumber":3,"parameterNumberName":"V-component_of_WINDS"},"data":[0,0,0,0,0,0,0,0,0,0,0,0,0,0,0,0,0,0,0,0,0,0,0,0,0,0,0,0,0,0,0,0,0,0,0,0,0,0,0,0,0,0,0,0,0,0,0,0,0,0,0,0,0,0,0,0,0,0,2.455,2.4551,0,2.4638,2.4639,2.464,2.4675,2.4675,2.4675,2.4675,2.4764,2.4766,2.4769,0,0,0,0,0,0,0,0,0,0,0,0,0,2.4413,2.4416,2.455,2.4551,2.4552,2.4637,2.4639,2.464,2.4675,2.4675,2.4675,2.4675,2.4763,2.4766,2.4769,0,0,0,0,0,0,0,0,0,0,0,0,0,2.4484,2.4417,2.455,2.458,2.4584,2.4637,2.4639,2.464,2.4675,2.4675,2.4675,2.4674,2.4762,2.4765,2.4769,2.4799,0,0,2.4781,2.4783,0,0,0,0,0,0,0,0,2.448,2.4489,2.4574,2.4578,2.4582,2.4645,2.4623,2.4693,2.4675,2.464,2.4675,2.4674,2.4724,2.4731,2.4748,2.4803,2.4807,2.4781,2.4784,2.4785,2.4786,0,0,0,0,0,0,0,2.4475,2.4485,2.4585,2.4576,2.458,2.4589,2.4599,2.4637,2.4683,2.4644,2.4646,2.4656,2.4726,2.4745,2.4751,2.4808,2.4781,2.4785,2.4787,2.4788,2.4894,2.4895,0,0,0,0,0,0,2.4465,2.4481,2.4582,2.4587,2.4529,2.4592,2.4603,2.4625,2.4683,2.4691,2.4656,2.4658,2.4738,2.4746,2.4754,2.4795,2.4785,2.4789,2.4791,2.4894,2.4894,2.4895,0,0,0,0,0,0,2.4462,2.4474,2.4578,2.4535,2.4549,2.4595,2.462,2.4627,2.4645,2.4692,2.4701,2.4666,2.4738,2.4749,2.4788,2.4798,2.479,2.4794,2.4893,2.4894,2.4895,2.4874,0,0,0,0,0,0,2.4458,2.4472,2.4484,2.4535,2.4551,2.4611,2.462,2.4629,2.4652,2.4654,2.4704,2.4712,2.4739,2.4782,2.4792,2.4803,2.4797,2.4893,2.4894,2.4895,2.4874,2.4874,2.4874,0,0,0,0,0,2.4453,2.4474,2.4484,2.4496,2.4566,2.4611,2.462,2.4651,2.4652,2.4665,2.4696,2.471,2.4795,2.4786,2.4797,2.481,2.4892,2.4893,2.4894,2.4874,2.4874,2.4874,0,0,0,0,0,0,2.4421,2.4481,2.4493,2.4531,2.4566,2.4617,2.4633,2.4649,2.4684,2.4685,2.4721,2.4732,2.4769,2.4793,2.4782,2.4843,2.4845,2.4848,2.4826,2.4826,2.4826,2.482,2.48,0,0,0,0,0,2.4419,2.445,2.45,2.4529,2.4546,2.4587,2.4607,2.4628,2.4665,2.468,2.4713,2.4749,2.4784,2.4806,2.4841,2.4878,2.489,2.4892,2.4892,2.4892,2.4895,2.4919,2.4921,2.4899,2.4899,2.4899,0,0,2.4414,2.445,2.4468,2.4524,2.4553,2.4586,2.4599,2.4631,2.4656,2.4685,2.4725,2.4751,2.4793,2.4832,2.4851,2.4854,2.4904,2.4893,2.4893,2.4896,2.492,2.4922,2.4924,2.49,2.49,2.4899,0,0,2.4422,2.4452,2.448,2.451,2.4555,2.4582,2.4589,2.4638,2.4657,2.4698,2.4721,2.4751,2.4809,2.484,2.4862,2.4884,2.49,2.4894,2.4895,2.4918,2.4919,2.4921,2.4931,2.4934,2.4897,2.4897,2.4897,0,2.441,2.4459,2.4492,2.4525,2.455,2.4579,2.4608,2.4635,2.4689,2.4706,2.4707,2.4784,2.4814,2.4862,2.4868,2.4884,2.4895,2.4889,2.4917,2.4919,2.4921,2.4931,2.4934,2.4896,2.4896,2.4896,2.4896,0,2.4443,2.4478,2.4495,2.4548,2.4575,2.4605,2.4644,2.4667,2.4686,2.4713,2.4756,2.4793,2.4837,2.485,2.4868,2.4901,2.4902,2.4909,2.4913,2.4922,2.4932,2.4935,2.4895,2.4895,2.4895,2.4896,0,0,2.4433,2.4505,2.4511,2.4537,2.4589,2.4617,2.465,2.4693,2.4714,2.475,2.4779,2.483,2.4838,2.4864,2.4886,2.4906,2.4924,2.4912,2.4914,2.4915,2.4966,2.4961,2.4965,2.4935,2.4936,2.4936,2.4963,0,2.4449,2.451,2.4541,2.4589,2.4622,2.4651,2.468,2.4716,2.4743,2.4775,2.4805,2.4841,2.4848,2.4864,2.4885,2.4917,2.4935,2.4916,2.4964,2.4965,2.4954,2.4969,2.4964,2.4987,2.4967,2.4968,2.4968,0,2.4475,2.4513,2.4564,2.4616,2.4631,2.4657,2.4701,2.4731,2.4773,2.4792,2.4822,2.4844,2.4881,2.4881,2.4934,2.492,2.4942,2.4961,2.4962,2.4969,2.4968,2.4978,2.4995,2.4999,2.4974,2.4974,2.4973,0,2.4465,2.4528,2.4568,2.4589,2.4649,2.4667,2.4693,2.4735,2.476,2.4799,2.4816,2.4858,2.4881,2.4913,2.4947,2.4943,2.4997,2.4999,2.5015,2.5014,2.5025,2.5024,2.5047,2.5036,2.5036,2.5036,2.5036,0,2.448,2.4511,2.4565,2.4589,2.4625,2.4662,2.4696,2.4724,2.4762,2.4793,2.482,2.4849,2.489,2.4925,2.4951,2.4992,2.5002,2.5018,2.5025,2.5017,2.5015,2.5033,2.5032,2.5037,2.5037,2.5037,2.5037,0,2.4474,2.4511,2.4557,2.4612,2.4626,2.465,2.4697,2.4723,2.4752,2.4791,2.4802,2.4848,2.489,2.4926,2.4981,2.4999,2.5042,2.5049,2.5028,2.5032,2.5046,2.5045,2.5082,2.509,2.5072,2.5072,2.5072,0,2.4482,2.4507,2.4565,2.4588,2.4614,2.4651,2.4678,2.4715,2.4742,2.4793,2.4813,2.4857,2.4895,2.4961,2.4999,2.5042,2.5052,2.5062,2.5058,2.505,2.5054,2.5053,2.5057,2.5062,2.5062,2.5062,2.5062,0,2.4493,2.4511,2.4548,2.4593,2.4625,2.4661,2.4699,2.4717,2.4761,2.479,2.4834,2.4863,2.4921,2.4965,2.5013,2.504,2.506,2.5063,2.5069,2.5062,2.5049,2.5058,2.503,2.5062,2.5062,2.5062,2.5062,2.5062,2.4495,2.452,2.4565,2.4607,2.464,2.4675,2.4703,2.4736,2.4774,2.4824,2.4844,2.4889,2.4933,2.5,2.5027,2.5064,2.5067,2.5075,2.5078,2.508,2.508,2.5042,2.5073,2.5073,2.5073,2.5073,2.5073,0,2.4509,2.4541,2.4579,2.4632,2.4665,2.4681,2.4724,2.4751,2.4791,2.4831,2.4868,2.492,2.4964,2.5006,2.5052,2.5074,2.5084,2.5085,2.5084,2.5091,2.5073,2.5064,2.5076,2.5076,2.5076,2.5076,2.5076,2.5076,2.452,2.4563,2.4587,2.4647,2.4679,2.4724,2.4748,2.4781,2.4814,2.4871,2.4908,2.4936,2.4977,2.5027,2.5069,2.508,2.5097,2.5096,2.511,2.5093,2.5092,2.5091,2.5083,2.5099,2.5099,2.5125,2.5125,2.5125]}]]